AO-07 1 07530U 74089B 15085.49439727 -.00000011 00000-0 20217-3 0 9995 2 07530 101.5126 063.4285 0012358 103.5423 010.7417 12.53612923846897 FO-29 1 24278U 96046B 15085.86029150 -.00000002 00000-0 37122-4 0 9990 2 24278 098.5318 065.8204 0349399 284.3399 191.1371 13.53047887918893 SO-33 1 25509U 98061B 15085.84369884 .00001212 00000-0 22795-3 0 9998 2 25509 031.4326 358.4129 0347969 071.4560 292.3538 14.29923329857630 RS-22 1 27939U 03042A 15085.62635334 .00001150 00000-0 21863-3 0 9990 2 27939 097.8328 251.2424 0012295 292.2649 067.7254 14.65887375614097 HO-68 1 36122U 09072B 15085.85303183 -.00000060 00000-0 -43517-4 0 9994 2 36122 100.2045 133.5599 0007071 310.8327 049.2177 13.16325036253620 AO-73 1 39444U 13066AE 15084.80434916 .00002948 00000-0 38562-3 0 9993 2 39444 097.7386 150.6041 0061198 048.6627 311.9828 14.79856414 71088 EO-79 1 40025U 14033R 15085.44787109 .00002433 00000-0 27907-3 0 9991 2 40025 097.9601 345.5792 0014505 092.7249 267.5591 14.86752693 41504 UO-11 1 14781U 84021B 15085.14105625 .00001112 00000-0 14577-3 0 9991 2 14781 097.8116 144.2330 0008228 351.7992 008.3086 14.82244492669723 AO-16 1 20439U 90005D 15085.09361294 .00000254 00000-0 10961-3 0 9996 2 20439 098.5352 022.5354 0011831 050.1986 016.9649 14.32509461314846 LO-19 1 20442U 90005G 15085.79584273 .00000244 00000-0 10549-3 0 9992 2 20442 098.5062 023.0324 0012567 036.9182 323.2864 14.32704584315148 AO-27 1 22825U 93061C 15085.84160461 .00000204 00000-0 96781-4 0 9998 2 22825 098.7002 035.9687 0008232 182.2890 230.8197 14.29852272121174 IO-26 1 22826U 93061D 15084.85662211 .00000240 00000-0 11004-3 0 9993 2 22826 098.6945 035.1628 0008851 177.5596 182.5631 14.30165788121171 GO-32 1 25397U 98043D 15084.95075457 .00000129 00000-0 75188-4 0 9995 2 25397 098.5109 038.0429 0001182 151.3774 248.8738 14.23527860867959 NO-44 1 26931U 01043C 15085.84841541 .00000244 00000-0 12572-3 0 9993 2 26931 067.0528 029.4808 0006417 264.1463 095.8906 14.30279252704021 SO-50 1 27607U 02058C 15085.50586164 .00001534 00000-0 23997-3 0 9997 2 27607 064.5540 091.2313 0077071 304.5861 054.7986 14.74553481659096 CO-55 1 27844U 03031E 15084.60052846 .00000385 00000-0 19494-3 0 9997 2 27844 098.6977 094.3165 0009801 175.6298 296.5718 14.21744745608569 CO-57 1 27848U 03031J 15085.59278229 .00000324 00000-0 16846-3 0 9996 2 27848 098.7073 095.1588 0009605 179.9806 331.2912 14.21400183608617 AO-51 1 28375U 04025K 15084.81534784 .00000299 00000-0 10156-3 0 9990 2 28375 098.2856 027.6897 0081907 220.7955 138.7084 14.41614308564478 CP3 1 31129U 07012N 15085.11324542 .00001266 00000-0 28305-3 0 9993 2 31129 097.9721 054.5332 0096024 211.9875 279.5126 14.55604464421030 CO-65 1 32785U 08021C 15085.81381477 .00002427 00000-0 27953-3 0 9998 2 32785 097.6594 132.3835 0012865 344.8482 141.4601 14.86551628373991 PRISM 1 33493U 09002B 15085.79032776 .00004630 00000-0 45630-3 0 9997 2 33493 098.2530 279.2027 0015723 239.1823 120.7848 14.92477621334289 SOHLA-1 1 33496U 09002E 15084.94693954 .00000775 00000-0 13391-3 0 9992 2 33496 098.1988 212.1891 0007519 072.6817 065.5842 14.71255774330938 TISAT-1 1 36799U 10035E 15085.86165985 .00004697 00000-0 51788-3 0 9998 2 36799 098.0115 185.3341 0014354 116.4675 001.3174 14.87920479254718 STUDSAT 1 36801U 10035G 15085.32497966 .00029987 00000-0 19399-2 0 9990 2 36801 098.0533 200.4495 0005635 072.4419 348.5261 15.08117408255464 ALMASAT-1 1 38078U 12006B 15084.52092164 .00059767 37392-5 10720-2 0 9997 2 38078 069.4562 090.5255 0507730 012.5813 348.7464 14.71502005162693 XATCOBEO 1 38082U 12006F 14243.34478676 .13583328 43697-5 37939-3 0 9990 2 38082 069.3815 097.0364 0033293 225.1799 135.4582 16.41261006136239 CUBEBUG-1 1 39153U 13018D 15085.82296959 .00002420 00000-0 33441-3 0 9999 2 39153 098.0188 170.4334 0018141 155.8392 204.3674 14.78924097103301 ESTCUBE-1 1 39161U 13021C 15085.83070470 .00001469 00000-0 24786-3 0 9995 2 39161 098.0737 169.4832 0009097 210.7732 149.2922 14.70928009101131 DUCHIFAT-1 1 40021U 14033M 15085.65256736 .00003423 00000-0 38352-3 0 9993 2 40021 097.9610 345.9969 0015380 094.3650 265.9328 14.87445092 41532 NANOSATCBR1 1 40024U 14033Q 15085.55408472 .00002911 00000-0 32993-3 0 9997 2 40024 097.9599 345.7540 0014433 092.2248 268.0638 14.87103577 41517 DTUSAT-2 1 40030U 14033W 15085.45194396 .00002461 00000-0 28501-3 0 9990 2 40030 097.9580 345.3847 0014060 088.4471 271.8317 14.86364134 41491 ANTELSAT 1 40034U 14033AA 15085.62060673 .00001986 00000-0 31236-3 0 9993 2 40034 097.9532 339.4532 0061142 025.3590 335.0578 14.72405808 41145 MET-2/21 1 22782U 93055A 15085.15302983 .00000007 00000-0 -67826-5 0 9995 2 22782 082.5485 309.5689 0021983 190.9687 282.6211 13.83763946 89119 OKEAN-4 1 23317U 94066A 15085.22402402 .00001702 00000-0 18938-3 0 9998 2 23317 082.5401 163.3451 0018920 242.1922 131.0646 14.86455683104997 NOAA-14 1 23455U 94089A 15085.49315652 .00000048 00000-0 47913-4 0 9993 2 23455 098.7549 168.6363 0008693 320.9340 169.4392 14.14029430 43844 NOAA-15 1 25338U 98030A 15085.47870935 .00000249 00000-0 12410-3 0 9999 2 25338 098.7711 084.0703 0011544 052.7964 307.4267 14.25586023877058 RESURS 1 25394U 98043A 15084.96951248 .00000054 00000-0 41400-4 0 9991 2 25394 098.4560 043.0956 0002072 125.0620 274.8705 14.24448390868432 FENGYUN1 1 25730U 99025A 15084.84792269 .00001791 00000-0 98073-3 0 9995 2 25730 098.9383 049.7729 0020569 029.7767 028.0792 14.13096677817285 OKEAN-0 1 25860U 99039A 15085.88144281 .00001168 00000-0 17765-3 0 9991 2 25860 098.0852 053.8449 0001079 105.2961 307.2692 14.75899182843849 NOAA-16 1 26536U 00055A 15085.46411772 .00000053 00000-0 52592-4 0 9998 2 26536 098.9506 151.4894 0011592 105.9788 254.2662 14.13083254747971 NOAA-17 1 27453U 02032A 15085.49837423 .00000120 00000-0 69009-4 0 9998 2 27453 098.3351 075.6130 0012910 067.9930 292.2621 14.24864107662882 NOAA-18 1 28654U 05018A 15085.44999680 .00000197 00000-0 13258-3 0 9996 2 28654 099.1800 076.0956 0014078 188.6814 171.4116 14.12167591507395 NOAA-19 1 33591U 09005A 15085.46732678 .00000278 00000-0 17676-3 0 9994 2 33591 098.9817 035.1863 0014900 046.2367 314.0035 14.11897813315810 HUBBLE 1 20580U 90037B 15085.87388164 .00003788 00000-0 23491-3 0 9996 2 20580 028.4708 336.7934 0003237 072.5193 021.5918 15.07051471167374 ISS 1 25544U 98067A 15085.60908606 .00015649 00000-0 23297-3 0 9995 2 25544 051.6463 136.5494 0007106 142.3124 336.0950 15.55290317935180 CO-58 1 28895U 05043F 15085.07792659 .00001407 00000-0 28519-3 0 9998 2 28895 097.8228 277.1944 0016778 195.8040 164.2641 14.62603346501443 FALCON 1 30776U 07006E 15085.49413124 .00012419 00000-0 52492-3 0 9995 2 30776 035.4275 158.8524 0002797 249.9083 225.7848 15.22477611443681 MAST 1 31126U 07012K 15085.86931059 .00000836 00000-0 19027-3 0 9992 2 31126 097.9522 057.6901 0090769 191.7736 198.5597 14.55906153421518 CAPE1 1 31130U 07012P 15085.13223082 .00001178 00000-0 26568-3 0 9995 2 31130 097.9738 054.0467 0096665 213.7220 145.7806 14.55296323420803 COMPASS 1 32787U 08021E 15085.16217919 .00004438 00000-0 46368-3 0 9992 2 32787 097.6616 135.3706 0012296 334.6529 025.4084 14.90124975374145 AAUSAT2 1 32788U 08021F 15085.14545210 .00004886 00000-0 49781-3 0 9998 2 32788 097.6619 136.7299 0011629 331.5346 028.5237 14.91095085374226 DO-64 1 32789U 08021G 15085.15902993 .00009501 00000-0 79983-3 0 9991 2 32789 097.6812 146.4509 0010225 305.0994 110.2654 14.98402179374641 CO-66 1 32791U 08021J 15085.81430973 .00003661 00000-0 40089-3 0 9997 2 32791 097.6610 134.0894 0013184 337.8836 022.1811 14.88317679374066 RS-30 1 32953U 08025A 15085.89865158 .00000010 00000-0 -13620-7 0 9997 2 32953 082.5068 025.4108 0017563 260.5084 099.4014 12.43058078310380 METEOR-M 1 35865U 09049A 15080.04424789 -.00000025 00000-0 76505-5 0 9997 2 35865 098.5102 123.5015 0002916 025.5934 334.5440 14.22001542285680 RS-38 1 35869U 09049E 15085.79249324 .00000089 00000-0 59076-4 0 9990 2 35869 098.5031 128.7209 0004750 005.6313 354.4905 14.22280479286546 JUGNU 1 37839U 11058B 15085.08029280 .00000491 00000-0 12009-3 0 9992 2 37839 019.9622 346.3261 0019113 209.9848 285.4615 14.12438680178454 SRMSAT 1 37841U 11058D 15085.19123683 .00000468 00000-0 11289-3 0 9992 2 37841 019.9728 010.6650 0012045 140.5919 008.6407 14.10456050178221 RAX-2 1 37853U 11061D 15085.51445978 .00006136 00000-0 38716-3 0 9991 2 37853 101.7142 256.0038 0200542 317.0344 077.2213 14.94669835184755 AUBIESAT 1 37854U 11061E 15085.47324182 .00007665 00000-0 46000-3 0 9993 2 37854 101.7175 258.9932 0197295 312.3633 110.1425 14.96616272184846 HRBE 1 37855U 11061F 15085.14184165 .00007722 00000-0 47360-3 0 9997 2 37855 101.7189 257.3195 0199670 315.6462 042.8896 14.95559955184735 RS-39 1 38051U 11062C 14288.65876392 .70201582 12497-4 27925-2 0 9995 2 38051 051.5964 324.1908 0006422 269.6897 186.8903 16.43533377153081 E-STAR 1 38079U 12006C 15016.13455217 .17990388 48979-5 52837-3 0 9992 2 38079 069.3967 125.0648 0013168 047.0341 316.5109 16.44007688156194 GOLIAT 1 38085U 12006J 15047.13271005 .15174231 50628-5 38163-3 0 9993 2 38085 069.4022 049.8202 0017770 344.8867 016.3100 16.44194733160691 HORYU-2 1 38340U 12025D 15085.85015693 .00003070 00000-0 47518-3 0 9992 2 38340 098.3048 053.7184 0012233 005.9629 354.1722 14.73946856153402 RS-40 1 38735U 12041C 15085.66158049 .00000040 00000-0 21992-3 0 9992 2 38735 082.4724 111.4413 0016870 004.6076 355.5153 12.42567529120660 PROITERES 1 38756U 12047B 15085.75086716 .00001054 00000-0 16205-3 0 9999 2 38756 098.2165 183.6673 0011906 196.5083 163.5740 14.75645950136849 BEESAT-3 1 39134U 13015E 15085.84453549 .00009552 00000-0 57709-3 0 9993 2 39134 064.8741 320.7057 0033836 262.0382 097.6900 15.10685890106250 BEESAT-2 1 39136U 13015G 15084.82291395 .00008248 00000-0 51924-3 0 9995 2 39136 064.8749 325.7347 0034347 261.9713 097.7511 15.09290193106076 LO-75 1 39382U 13064C 14295.69194059 .07301741 00000-0 36367-2 0 9993 2 39382 040.4713 030.2705 0002289 341.7175 018.4586 16.19795749470823 ZACUBE-1 1 39417U 13066B 15085.15033478 .00002367 00000-0 31423-3 0 9994 2 39417 097.7383 150.7626 0061757 048.1301 312.5157 14.79396029 72354 TRITON-1 1 39427U 13066M 15084.69786346 .00001981 00000-0 33117-3 0 9995 2 39427 097.7255 140.3285 0117655 073.9633 287.4493 14.66403520 71636 DELFIN3XT 1 39428U 13066N 15085.44631598 .00003427 00000-0 57681-3 0 9997 2 39428 097.7249 139.5000 0126564 075.9713 285.5524 14.64970234 71638 GOMX-1 1 39430U 13066Q 15085.85511255 .00001656 00000-0 31512-3 0 9999 2 39430 097.7186 134.8784 0155603 089.1614 272.7392 14.57811366 71386 MO-76 1 39436U 13066W 15084.74107933 .00030753 00000-0 23127-2 0 9998 2 39436 097.7520 160.6393 0023095 028.9714 331.2787 15.02276484 72947 LO-74 1 39440U 13066AA 15085.13514207 .00002150 00000-0 31486-3 0 9991 2 39440 097.7339 146.7826 0083631 056.8845 304.0356 14.74241107 72091 PUCPSAT-1 1 39442U 13066AC 15085.46138803 .00003661 00000-0 39983-3 0 9991 2 39442 097.7456 157.3770 0034069 038.5126 321.8512 14.88075752 71567 SHINAISAT 1 39572U 14009A 14328.13084988 .28848087 76253-5 66603-3 0 9996 2 39572 064.9728 197.0096 0013534 259.7861 100.1802 16.45181032 42403 TEIKYOSAT 1 39576U 14009E 14297.85867254 .09345816 76764-5 25176-3 0 9997 2 39576 064.9818 300.5833 0008491 317.3597 044.3862 16.45008906 37698 CO-77 1 39577U 14009F 14244.78324653 .10543803 76292-5 32273-3 0 9993 2 39577 064.9920 123.7668 0014904 269.7208 091.1897 16.43552757 29380 SPROUT 1 39770U 14029E 15085.02890914 .00001626 00000-0 20366-3 0 9999 2 39770 097.8672 183.0142 0011240 111.2659 248.9776 14.83559876 45300 POPSAT-HIP1 1 40028U 14033U 15085.74743225 .00002277 00000-0 26256-3 0 9990 2 40028 097.9627 345.9384 0015844 091.0468 269.2594 14.86599565 41530 EO-80 1 40032U 14033Y 15085.45732896 .00002400 00000-0 27832-3 0 9994 2 40032 097.9592 345.4034 0013982 086.7248 273.5521 14.86321716 41495 VELOX-1 1 40057U 14034E 15085.81609918 .00002524 00000-0 37898-3 0 9990 2 40057 098.2206 162.5723 0012305 138.6460 221.5661 14.75419440 39734 DAURIA DX 1 1 40071U 14037C 15085.79801608 .00001132 00000-0 15642-3 0 9993 2 40071 098.3643 153.8020 0009494 138.3443 221.8469 14.80194643 38607 UKUBE-1 1 40074U 14037F 15085.79405936 .00002395 00000-0 31079-3 0 9994 2 40074 098.3653 154.3313 0005648 142.1710 217.9867 14.81774769 38634 CHASQUI-1 1 40117U 98067ET 15014.73322295 .07508583 12315-4 10026-2 0 9990 2 40117 051.6189 112.4445 0004239 337.2783 022.7551 16.34635278 23368 HODOYOSHI-1 1 40299U 14070B 15085.80864909 .00005041 00000-0 24686-3 0 9998 2 40299 097.4593 168.3815 0014621 064.2150 051.7913 15.18525201 21310 CHUBUSAT-1 1 40300U 14070C 15085.79231361 .00005564 00000-0 28530-3 0 9991 2 40300 097.4567 167.8996 0023961 063.0578 031.5227 15.16710423 21286 QSAT-EOS 1 40301U 14070D 15085.78275352 .00010294 00000-0 54072-3 0 9995 2 40301 097.4538 167.4032 0034387 062.7505 032.3215 15.15370314 21255 TSUBAME 1 40302U 14070E 15085.81992976 .00005866 00000-0 33695-3 0 9995 2 40302 097.4521 166.8157 0045411 063.8377 296.7633 15.12003920 21228 FIREBIRD FU3 1 40377U 15003B 15085.82870519 .00009304 00000-0 48129-3 0 9992 2 40377 099.1258 104.1531 0164172 162.4244 198.2775 15.05533544 8154 FIREBIRD FU4 1 40378U 15003C 15085.49541213 .00009083 00000-0 46917-3 0 9999 2 40378 099.1249 103.7610 0164510 163.5800 197.0953 15.05551238 8104 GRIFEX 1 40379U 15003D 15085.76892917 .00007530 00000-0 39383-3 0 9994 2 40379 099.1266 104.0721 0164383 163.7129 196.9439 15.05240460 8148 LAMBDA-SAT 1 40458U 98067GB 15085.56489584 .00163921 00000-0 18117-2 0 9991 2 40458 051.6439 136.1902 0006756 120.0675 031.3299 15.61954707 13149 /EX